CW2285 Weather Reports


Display with metric or nautical units.
time (UTC)temp
F
wind
direction
speed
MPH
gust
MPH
rain 1hr
in
rain 24hr
in
rain mn
in
humidity
%
barometer
mb
20260503213503 84 296 17.0 30.0 0.00 0.00 0.00 33 1004.0
20260503213002 83 295 16.0 26.0 0.00 0.00 0.00 34 1003.9
20260503212502 83 283 18.0 26.0 0.00 0.00 0.00 35 1004.2
20260503212003 83 284 18.0 28.0 0.00 0.00 0.00 34 1004.2
20260503211503 83 287 18.0 29.0 0.00 0.00 0.00 34 1004.3
20260503211003 84 283 22.0 35.0 0.00 0.00 0.00 34 1004.3
20260503210503 84 282 16.0 26.0 0.00 0.00 0.00 34 1004.2
20260503210003 84 285 9.0 24.0 0.00 0.00 0.00 34 1004.3
20260503205003 85 294 15.0 26.0 0.00 0.00 0.00 33 1004.3
20260503204503 85 298 12.0 25.0 0.00 0.00 0.00 33 1004.3
20260503204003 85 284 13.0 25.0 0.00 0.00 0.00 32 1004.4
20260503203002 84 274 14.0 24.0 0.00 0.00 0.00 34 1004.5
20260503202503 85 293 14.0 23.0 0.00 0.00 0.00 32 1004.6
20260503202003 85 290 12.0 20.0 0.00 0.00 0.00 32 1004.8
20260503201503 85 300 13.0 24.0 0.00 0.00 0.00 32 1004.8
20260503201003 85 309 10.0 23.0 0.00 0.00 0.00 32 1004.8
20260503200003 85 307 11.0 23.0 0.00 0.00 0.00 31 1004.9
20260503195003 85 294 13.0 20.0 0.00 0.00 0.00 32 1005.1
20260503194503 85 285 10.0 20.0 0.00 0.00 0.00 32 1005.3
20260503194003 85 288 11.0 20.0 0.00 0.00 0.00 32 1005.3
20260503193503 85 287 12.0 20.0 0.00 0.00 0.00 32 1005.4
20260503193002 85 278 10.0 20.0 0.00 0.00 0.00 32 1005.5
20260503192003 85 299 10.0 20.0 0.00 0.00 0.00 31 1005.5
20260503191003 85 295 11.0 20.0 0.00 0.00 0.00 31 1005.7
20260503190503 84 287 10.0 20.0 0.00 0.00 0.00 32 1005.9
20260503190002 84 283 10.0 15.0 0.00 0.00 0.00 33 1005.9
20260503185003 84 303 10.0 20.0 0.00 0.00 0.00 33 1005.9
20260503184503 84 279 10.0 16.0 0.00 0.00 0.00 33 1005.9
20260503184002 84 303 13.0 23.0 0.00 0.00 0.00 34 1005.9
20260503183503 84 311 9.0 17.0 0.00 0.00 0.00 34 1005.9
20260503183003 84 294 9.0 16.0 0.00 0.00 0.00 32 1006.0
20260503182502 84 288 9.0 17.0 0.00 0.00 0.00 34 1006.0
20260503182004 84 302 10.0 16.0 0.00 0.00 0.00 34 1006.1
20260503181504 84 296 9.0 14.0 0.00 0.00 0.00 34 1006.3
20260503181002 83 278 10.0 18.0 0.00 0.00 0.00 34 1006.3
20260503180503 83 275 9.0 16.0 0.00 0.00 0.00 34 1006.3
20260503180003 82 308 13.0 17.0 0.00 0.00 0.00 35 1006.4
20260503175502 83 288 9.0 16.0 0.00 0.00 0.00 35 1006.4
20260503175003 82 292 10.0 20.0 0.00 0.00 0.00 37 1006.4
20260503174502 82 286 9.0 16.0 0.00 0.00 0.00 37 1006.4
20260503173503 81 295 10.0 18.0 0.00 0.00 0.00 37 1006.4
20260503172502 81 294 11.0 17.0 0.00 0.00 0.00 37 1006.4
20260503172003 81 295 8.0 15.0 0.00 0.00 0.00 38 1006.4
20260503171003 80 297 11.0 20.0 0.00 0.00 0.00 40 1006.4
20260503170503 79 301 10.0 18.0 0.00 0.00 0.00 41 1006.5
20260503151003 74 290 12.0 20.0 0.00 0.00 0.00 46 1006.3
20260503150503 73 287 11.0 23.0 0.00 0.00 0.00 47 1006.3
20260503131003 71 285 15.0 23.0 0.00 0.00 0.00 50 1005.0
20260503130503 71 290 14.0 22.0 0.00 0.00 0.00 51 1004.9
20260503110503 75 297 9.0 17.0 0.00 0.00 0.00 44 1004.7
20260503090503 80 307 6.0 15.0 0.00 0.00 0.00 32 1005.3
20260503081503 81 323 3.0 9.0 0.00 0.00 0.00 32 1005.9
20260503081003 81 324 2.0 9.0 0.00 0.00 0.00 31 1006.0
20260503080503 81 294 3.0 8.0 0.00 0.00 0.00 31 1006.1
20260503072503 82 252 1.0 6.0 0.00 0.00 0.00 31 1006.2
20260503072003 82 268 2.0 3.0 0.00 0.00 0.00 31 1006.1
20260503071504 82 296 2.0 7.0 0.00 0.00 0.00 31 1006.0
20260503071003 82 283 2.0 7.0 0.00 0.00 0.00 30 1006.0
20260503070503 83 281 2.0 3.0 0.00 0.00 0.00 31 1005.9
20260503055002 82 299 1.0 3.0 0.00 0.00 0.00 34 1006.1
20260503054502 82 291 0.0 1.0 0.00 0.00 0.00 34 1006.1
20260503054003 82 266 1.0 2.0 0.00 0.00 0.00 34 1006.1
20260503053502 82 315 0.0 2.0 0.00 0.00 0.00 34 1006.2
20260503052503 82 304 2.0 3.0 0.00 0.00 0.00 36 1006.1
20260503052003 82 329 1.0 3.0 0.00 0.00 0.00 36 1006.1
20260503051003 83 309 1.0 3.0 0.00 0.00 0.00 34 1006.1
20260503050502 84 289 2.0 6.0 0.00 0.00 0.00 33 1006.1
20260503045503 84 297 3.0 6.0 0.00 0.00 0.00 33 1005.9
20260503044503 85 289 2.0 7.0 0.00 0.00 0.00 32 1005.9
20260503044003 85 303 3.0 8.0 0.00 0.00 0.00 32 1005.8
20260503043503 85 288 2.0 7.0 0.00 0.00 0.00 32 1005.8
20260503043003 84 299 2.0 5.0 0.00 0.00 0.00 33 1005.7
20260503042503 85 302 1.0 7.0 0.00 0.00 0.00 31 1005.5
20260503041002 86 296 3.0 12.0 0.00 0.00 0.00 30 1005.4
20260503035503 86 299 7.0 13.0 0.00 0.00 0.00 29 1005.3
20260503035003 86 283 7.0 12.0 0.00 0.00 0.00 31 1005.3
20260503034503 86 291 6.0 12.0 0.00 0.00 0.00 30 1005.2
20260503033003 87 285 2.0 7.0 0.00 0.00 0.00 28 1004.9
20260503032503 86 325 3.0 9.0 0.00 0.00 0.00 27 1004.9
20260503032003 85 299 3.0 8.0 0.00 0.00 0.00 21 1004.9
20260503031003 85 347 4.0 7.0 0.00 0.00 0.00 18 1004.8
20260503030503 86 346 5.0 7.0 0.00 0.00 0.00 16 1004.8
20260503030003 86 355 3.0 3.0 0.00 0.00 0.00 15 1004.7
20260503025503 87 19 3.0 3.0 0.00 0.00 0.00 15 1004.6
20260503025003 88 46 2.0 3.0 0.00 0.00 0.00 14 1004.3
20260503024003 89 44 1.0 3.0 0.00 0.00 0.00 13 1004.3
20260503023503 90 70 3.0 5.0 0.00 0.00 0.00 13 1004.3
20260503023003 90 88 5.0 7.0 0.00 0.00 0.00 13 1004.2
20260503022503 90 88 3.0 6.0 0.00 0.00 0.00 12 1004.2
20260503022003 91 97 4.0 9.0 0.00 0.00 0.00 12 1004.1
20260503021503 92 92 5.0 9.0 0.00 0.00 0.00 11 1004.1
20260503021003 92 107 6.0 12.0 0.00 0.00 0.00 11 1004.1
20260503020503 93 107 6.0 13.0 0.00 0.00 0.00 11 1004.1
20260503020003 93 100 6.0 10.0 0.00 0.00 0.00 10 1004.2
20260503015503 93 118 6.0 12.0 0.00 0.00 0.00 10 1004.3
20260503015003 94 100 9.0 14.0 0.00 0.00 0.00 10 1004.2
20260503014503 94 100 7.0 12.0 0.00 0.00 0.00 10 1004.2
20260503014003 94 114 6.0 13.0 0.00 0.00 0.00 10 1004.2
20260503013003 95 121 7.0 13.0 0.00 0.00 0.00 10 1004.3
20260503012502 95 124 8.0 12.0 0.00 0.00 0.00 9 1004.3
20260503012003 95 99 7.0 12.0 0.00 0.00 0.00 9 1004.1
20260503011503 95 121 8.0 14.0 0.00 0.00 0.00 9 1004.2
20260503010503 96 108 7.0 12.0 0.00 0.00 0.00 9 1004.2
20260503010003 96 125 8.0 12.0 0.00 0.00 0.00 9 1004.3
20260503005502 96 105 8.0 12.0 0.00 0.00 0.00 9 1004.3
20260503005003 96 114 8.0 13.0 0.00 0.00 0.00 9 1004.3
20260503004002 96 109 9.0 14.0 0.00 0.00 0.00 9 1004.3
20260503003503 96 113 9.0 13.0 0.00 0.00 0.00 9 1004.3
20260503003003 96 128 8.0 12.0 0.00 0.00 0.00 9 1004.3
20260503002503 97 129 8.0 14.0 0.00 0.00 0.00 9 1004.4
20260503002003 97 111 9.0 14.0 0.00 0.00 0.00 9 1004.3
20260503001503 97 137 7.0 12.0 0.00 0.00 0.00 8 1004.4
20260503001003 97 119 8.0 14.0 0.00 0.00 0.00 9 1004.3
20260502235503 97 98 7.0 12.0 0.00 0.00 0.00 9 1004.3
20260502235002 97 103 9.0 15.0 0.00 0.00 0.00 9 1004.4
20260502234502 97 130 7.0 10.0 0.00 0.00 0.00 8 1004.4
20260502234003 98 121 8.0 12.0 0.00 0.00 0.00 9 1004.6
20260502233502 98 104 7.0 13.0 0.00 0.00 0.00 8 1004.6
20260502232503 97 131 8.0 14.0 0.00 0.00 0.00 9 1004.8
20260502232003 97 97 11.0 17.0 0.00 0.00 0.00 9 1004.8
20260502231502 97 101 11.0 15.0 0.00 0.00 0.00 9 1004.8
20260502231003 97 124 9.0 15.0 0.00 0.00 0.00 9 1004.8
20260502230503 96 102 10.0 14.0 0.00 0.00 0.00 9 1004.8
20260502230003 96 106 7.0 13.0 0.00 0.00 0.00 9 1004.8
20260502225503 97 140 7.0 12.0 0.00 0.00 0.00 8 1004.9
20260502225003 97 99 9.0 13.0 0.00 0.00 0.00 8 1005.0
20260502224503 97 120 10.0 15.0 0.00 0.00 0.00 9 1005.2
20260502224003 97 135 8.0 13.0 0.00 0.00 0.00 9 1005.3
20260502223003 97 128 7.0 15.0 0.00 0.00 0.00 9 1005.4
20260502222503 99 129 7.0 13.0 0.00 0.00 0.00 9 1005.5
20260502222003 98 137 6.0 12.0 0.00 0.00 0.00 9 1005.7
20260502221503 98 101 9.0 17.0 0.00 0.00 0.00 9 1005.8
20260502221003 98 117 9.0 15.0 0.00 0.00 0.00 9 1005.9
20260502220503 98 163 8.0 12.0 0.00 0.00 0.00 9 1005.9
20260502215003 96 153 3.0 6.0 0.00 0.00 0.00 10 1005.9
20260502214503 97 134 6.0 10.0 0.00 0.00 0.00 9 1006.0